This demonstration page uses our WeatherBlox Daily Observations layout. Learn more.

39.29038, -76.61219

Hourly Observations for December 12, 2017

Temp ( °F °C ) Dew Point ( °F °C ) Humidity (%) Winds ( mph kmh ) Pressure ( in mb ) Visibility ( mi km ) Precip ( " mm )
12:54 am 00:54 undefined 43 6.1 32 0 65 65 undefined N/A 29.83 1010 N/A 0 0
1:54 am 01:54 undefined 44 6.7 32 0 63 63 undefined N/A 29.77 1008 N/A 0 0
2:54 am 02:54 undefined 45 7.2 32 0 61 61 undefined N/A 29.74 1007 N/A 0 0
3:54 am 03:54 undefined 44 6.7 31 -0.6 60 60 undefined N/A 29.71 1006 N/A 0 0
4:54 am 04:54 undefined 44 6.7 31 -0.6 60 60 undefined N/A 29.65 1004 N/A 0 0
5:54 am 05:54 undefined 44 6.7 32 0 63 63 undefined N/A 29.62 1003 N/A 0 0
6:54 am 06:54 undefined 43 6.1 32 0 65 65 undefined N/A 29.59 1002 N/A 0 0
7:54 am 07:54 undefined 43 6.1 32 0 65 65 undefined N/A 29.59 1002 N/A 0 0
8:54 am 08:54 undefined 43 6.1 32 0 65 65 undefined N/A 29.59 1002 N/A 0 0
9:54 am 09:54 undefined 44 6.7 32 0 63 63 undefined N/A 29.59 1002 N/A 0 0
10:54 am 10:54 undefined 45 7.2 32 0 61 61 undefined N/A 29.56 1001 N/A 0 0
11:54 am 11:54 undefined 46 7.8 32 0 58 58 undefined N/A 29.53 1000 N/A 0 0
12:54 pm 12:54 undefined 47 8.3 31 -0.6 54 54 undefined N/A 32.45 1099 N/A 0 0
1:54 pm 13:54 undefined 48 8.9 28 -2.2 46 46 undefined N/A 32.42 1098 N/A 0 0
2:54 pm 14:54 undefined 47 8.3 27 -2.8 46 46 undefined N/A 32.45 1099 N/A 0 0
3:54 pm 15:54 undefined 45 7.2 26 -3.3 48 48 undefined N/A 32.45 1099 N/A 0 0
4:54 pm 16:54 undefined 42 5.6 19 -7.2 40 40 undefined N/A 29.53 1000 N/A 0 0
5:54 pm 17:54 undefined 41 5 18 -7.8 39 39 undefined N/A 29.56 1001 N/A 0 0
6:54 pm 18:54 undefined 37 2.8 14 -10 39 39 undefined N/A 29.59 1002 N/A 0 0
7:54 pm 19:54 undefined 33 0.6 9 -12.8 36 36 undefined N/A 29.62 1003 N/A 0 0
8:54 pm 20:54 undefined 30 -1.1 6 -14.4 36 36 undefined N/A 29.65 1004 N/A 0 0
9:54 pm 21:54 undefined 28 -2.2 5 -15 37 37 undefined N/A 29.71 1006 N/A 0 0
10:54 pm 22:54 undefined 27 -2.8 6 -14.4 41 41 undefined N/A 29.71 1006 N/A 0 0
11:54 pm 23:54 undefined 25 -3.9 4 -15.6 40 40 undefined N/A 29.62 1003 N/A 0 0

Powered by AerisWeather